QPF
0.01 0.02 0.04 0.03 0.03 0.04 0.04 0.05 0.05 0.02 0.01 0.01 0.02 0.03 0.04 0.05 0.04 0.03 0.02 0.01 0.01 0.01 0.00 0.01 0.00 0.00 0.00 0.00 0.00 0.00 0.00 0.01 0.01 0.01 0.01 0.01 0.00 0.00 0.00 0.00 0.00 0.00 0.00 0.00
0.02 0.03 0.03 0.01 0.01 0.02 0.03 0.03 0.03 0.02 0.01 0.02 0.03 0.05 0.05 0.04 0.04 0.03 0.02 0.01 0.01 0.00 0.00 0.00 0.00 0.00 0.00 0.00 0.00 0.00 0.00 0.00 0.00 0.01 0.01 0.00 0.00 0.00 0.00 0.00 0.00 0.00 0.00 0.00
0.02 0.02 0.02 0.02 0.02 0.02 0.02 0.02 0.01 0.01 0.01 0.02 0.02 0.04 0.04 0.04 0.04 0.03 0.02 0.01 0.01 0.00 0.00 0.00 0.01 0.01 0.00 0.00 0.00 0.00 0.00 0.00 0.00 0.00 0.00 0.00 0.00 0.00 0.00 0.00 0.00 0.00 0.00 0.00
0.02 0.02 0.02 0.02 0.01 0.02 0.02 0.01 0.01 0.02 0.02 0.02 0.02 0.04 0.03 0.03 0.03 0.02 0.01 0.01 0.01 0.00 0.00 0.00 0.01 0.01 0.00 0.01 0.00 0.00 0.00 0.00 0.00 0.00 0.00 0.00 0.00 0.00 0.00 0.00 0.00 0.00 0.00 0.00
0.02 0.02 0.02 0.02 0.01 0.01 0.01 0.01 0.01 0.02 0.03 0.02 0.02 0.03 0.03 0.02 0.02 0.01 0.01 0.00 0.01 0.00 0.00 0.00 0.00 0.00 0.00 0.01 0.01 0.00 0.00 0.00 0.00 0.00 0.00 0.00 0.00 0.01 0.00 0.00 0.00 0.00 0.00 0.00
0.01 0.01 0.02 0.01 0.01 0.01 0.01 0.01 0.01 0.02 0.03 0.05 0.03 0.02 0.02 0.01 0.01 0.02 0.02 0.00 0.00 0.00 0.00 0.01 0.01 0.00 0.00 0.00 0.00 0.00 0.00 0.00 0.01 0.01 0.00 0.00 0.00 0.00 0.00 0.00 0.00 0.00 0.00 0.00
0.02 0.02 0.01 0.01 0.01 0.01 0.01 0.02 0.02 0.02 0.03 0.04 0.02 0.01 0.01 0.01 0.01 0.03 0.04 0.02 0.00 0.00 0.01 0.01 0.01 0.01 0.00 0.00 0.00 0.00 0.00 0.01 0.01 0.01 0.01 0.00 0.00 0.00 0.00 0.00 0.00 0.00 0.00 0.00
0.02 0.02 0.01 0.00 0.01 0.01 0.01 0.02 0.03 0.02 0.03 0.03 0.02 0.02 0.01 0.01 0.01 0.02 0.03 0.03 0.01 0.01 0.01 0.01 0.01 0.01 0.01 0.01 0.00 0.01 0.02 0.01 0.01 0.01 0.01 0.01 0.00 0.00 0.00 0.00 0.00 0.00 0.01 0.01
0.01 0.01 0.00 0.00 0.01 0.01 0.01 0.01 0.01 0.02 0.02 0.02 0.02 0.02 0.02 0.02 0.03 0.02 0.01 0.02 0.02 0.01 0.01 0.01 0.01 0.01 0.01 0.01 0.01 0.01 0.02 0.02 0.02 0.02 0.02 0.01 0.01 0.00 0.00 0.00 0.00 0.01 0.01 0.01
0.01 0.01 0.01 0.01 0.01 0.01 0.01 0.01 0.02 0.03 0.03 0.02 0.02 0.03 0.05 0.04 0.04 0.04 0.02 0.02 0.01 0.01 0.01 0.01 0.01 0.01 0.01 0.02 0.02 0.02 0.02 0.02 0.03 0.04 0.03 0.02 0.01 0.01 0.01 0.01 0.00 0.00 0.01 0.02
0.01 0.01 0.01 0.01 0.02 0.02 0.02 0.01 0.02 0.03 0.03 0.04 0.05 0.06 0.07 0.05 0.05 0.04 0.04 0.02 0.01 0.01 0.01 0.01 0.01 0.01 0.02 0.02 0.02 0.02 0.02 0.02 0.03 0.03 0.03 0.03 0.02 0.02 0.02 0.02 0.01 0.02 0.02 0.02
0.01 0.01 0.00 0.00 0.01 0.01 0.03 0.03 0.02 0.02 0.02 0.02 0.03 0.03 0.02 0.03 0.03 0.03 0.02 0.02 0.01 0.01 0.01 0.01 0.01 0.01 0.01 0.02 0.02 0.02 0.02 0.02 0.02 0.03 0.04 0.06 0.06 0.05 0.04 0.05 0.03 0.02 0.01 0.01
0.01 0.01 0.01 0.01 0.01 0.01 0.01 0.01 0.02 0.01 0.01 0.01 0.01 0.02 0.02 0.01 0.02 0.02 0.01 0.01 0.02 0.01 0.01 0.01 0.01 0.01 0.01 0.01 0.02 0.02 0.02 0.02 0.02 0.03 0.03 0.03 0.03 0.03 0.03 0.03 0.02 0.02 0.01 0.01
0.00 0.01 0.02 0.03 0.02 0.01 0.01 0.01 0.01 0.01 0.01 0.01 0.01 0.01 0.01 0.01 0.01 0.02 0.02 0.01 0.02 0.02 0.01 0.01 0.01 0.02 0.02 0.01 0.01 0.01 0.01 0.01 0.02 0.02 0.02 0.02 0.03 0.03 0.02 0.02 0.02 0.01 0.01 0.01
0.01 0.01 0.02 0.01 0.01 0.01 0.01 0.01 0.01 0.01 0.01 0.01 0.00 0.01 0.01 0.02 0.01 0.01 0.02 0.02 0.02 0.02 0.02 0.01 0.01 0.02 0.02 0.01 0.01 0.01 0.01 0.01 0.01 0.02 0.02 0.02 0.02 0.02 0.01 0.01 0.02 0.02 0.01 0.00
0.01 0.01 0.01 0.01 0.00 0.00 0.01 0.01 0.01 0.01 0.01 0.00 0.00 0.01 0.01 0.01 0.01 0.00 0.01 0.02 0.02 0.02 0.02 0.02 0.01 0.02 0.01 0.01 0.01 0.01 0.01 0.01 0.00 0.01 0.00 0.00 0.00 0.00 0.01 0.01 0.01 0.01 0.00 0.00
0.01 0.01 0.01 0.01 0.00 0.00 0.00 0.00 0.01 0.00 0.00 0.00 0.00 0.00 0.01 0.01 0.00 0.00 0.01 0.01 0.01 0.01 0.02 0.01 0.01 0.02 0.02 0.01 0.01 0.01 0.01 0.01 0.01 0.01 0.01 0.00 0.00 0.00 0.00 0.00 0.00 0.00 0.00 0.00
0.01 0.01 0.02 0.01 0.01 0.01 0.00 0.00 0.00 0.00 0.00 0.00 0.00 0.01 0.01 0.01 0.00 0.00 0.01 0.01 0.01 0.01 0.01 0.01 0.01 0.01 0.02 0.02 0.02 0.02 0.02 0.01 0.00 0.01 0.01 0.01 0.00 0.00 0.00 0.00 0.00 0.00 0.00 0.00
0.01 0.02 0.02 0.02 0.02 0.00 0.00 0.00 0.00 0.00 0.00 0.00 0.00 0.01 0.00 0.00 0.00 0.00 0.01 0.01 0.01 0.00 0.00 0.01 0.01 0.02 0.01 0.02 0.02 0.02 0.02 0.01 0.01 0.01 0.02 0.01 0.00 0.00 0.00 0.00 0.00 0.00 0.00 0.00
0.01 0.01 0.02 0.02 0.02 0.01 0.00 0.00 0.00 0.01 0.01 0.00 0.00 0.00 0.00 0.00 0.00 0.00 0.01 0.01 0.01 0.00 0.00 0.01 0.01 0.01 0.01 0.02 0.03 0.02 0.01 0.01 0.01 0.01 0.02 0.01 0.00 0.00 0.00 0.01 0.01 0.01 0.01 0.00
0.01 0.01 0.01 0.02 0.01 0.00 0.00 0.00 0.01 0.01 0.01 0.01 0.01 0.01 0.00 0.00 0.00 0.00 0.00 0.01 0.01 0.01 0.01 0.01 0.01 0.01 0.02 0.02 0.03 0.03 0.02 0.01 0.01 0.02 0.02 0.01 0.01 0.01 0.01 0.01 0.01 0.01 0.01 0.01
0.02 0.02 0.02 0.02 0.01 0.00 0.00 0.00 0.00 0.00 0.01 0.01 0.01 0.01 0.01 0.01 0.01 0.00 0.01 0.01 0.01 0.01 0.01 0.01 0.01 0.01 0.02 0.03 0.03 0.03 0.03 0.02 0.01 0.02 0.02 0.02 0.01 0.01 0.01 0.01 0.01 0.01 0.01 0.01
0.01 0.01 0.02 0.02 0.01 0.01 0.01 0.01 0.01 0.01 0.01 0.01 0.01 0.01 0.01 0.00 0.00 0.00 0.00 0.00 0.01 0.00 0.00 0.01 0.01 0.02 0.02 0.02 0.03 0.03 0.03 0.03 0.02 0.02 0.02 0.02 0.02 0.01 0.01 0.01 0.01 0.01 0.01 0.01
0.01 0.01 0.02 0.02 0.02 0.01 0.00 0.01 0.01 0.01 0.01 0.00 0.00 0.01 0.01 0.00 0.00 0.00 0.00 0.00 0.00 0.01 0.01 0.00 0.01 0.01 0.02 0.02 0.02 0.02 0.02 0.02 0.02 0.03 0.03 0.03 0.02 0.01 0.01 0.01 0.01 0.01 0.01 0.01
0.01 0.01 0.02 0.02 0.02 0.01 0.00 0.00 0.01 0.01 0.01 0.00 0.01 0.01 0.01 0.00 0.00 0.00 0.00 0.00 0.00 0.01 0.01 0.01 0.01 0.01 0.01 0.01 0.01 0.02 0.02 0.02 0.02 0.02 0.03 0.03 0.02 0.02 0.01 0.01 0.01 0.01 0.01 0.01
0.00 0.01 0.02 0.03 0.02 0.01 0.00 0.00 0.00 0.00 0.00 0.00 0.00 0.01 0.01 0.00 0.00 0.00 0.00 0.00 0.00 0.01 0.01 0.01 0.01 0.01 0.01 0.02 0.02 0.02 0.02 0.03 0.03 0.02 0.02 0.02 0.02 0.02 0.02 0.02 0.01 0.01 0.01 0.01
MSLP
1018.12 1018.94 1019.64 1020.22 1020.74 1021.25 1021.81 1022.45 1023.17 1023.94 1024.68 1025.33 1025.82 1026.10 1026.17 1026.02 1025.71 1025.31 1024.85 1024.40 1023.97 1023.57 1023.18 1022.80 1022.40 1022.00 1021.60 1021.24 1020.94 1020.74 1020.66 1020.71 1020.84 1021.05 1021.27 1021.45 1021.56 1021.57 1021.48 1021.31 1021.09 1020.85 1020.63 1020.46
1019.35 1020.11 1020.70 1021.16 1021.55 1021.95 1022.42 1023.02 1023.72 1024.49 1025.24 1025.90 1026.38 1026.63 1026.64 1026.42 1026.04 1025.56 1025.06 1024.58 1024.15 1023.78 1023.44 1023.11 1022.76 1022.39 1021.99 1021.62 1021.30 1021.07 1020.97 1021.01 1021.16 1021.39 1021.65 1021.88 1022.03 1022.08 1022.02 1021.86 1021.64 1021.40 1021.18 1021.01
1020.52 1021.20 1021.69 1022.03 1022.32 1022.63 1023.05 1023.62 1024.32 1025.09 1025.85 1026.49 1026.94 1027.13 1027.05 1026.74 1026.27 1025.72 1025.16 1024.67 1024.27 1023.94 1023.68 1023.43 1023.16 1022.84 1022.49 1022.13 1021.79 1021.54 1021.42 1021.43 1021.57 1021.80 1022.08 1022.34 1022.53 1022.61 1022.58 1022.43 1022.22 1021.98 1021.76 1021.59
1021.54 1022.14 1022.53 1022.78 1022.99 1023.27 1023.67 1024.24 1024.96 1025.75 1026.51 1027.12 1027.51 1027.62 1027.45 1027.03 1026.45 1025.81 1025.21 1024.71 1024.34 1024.08 1023.91 1023.77 1023.60 1023.37 1023.08 1022.75 1022.42 1022.15 1021.99 1021.97 1022.07 1022.29 1022.56 1022.83 1023.04 1023.16 1023.15 1023.04 1022.84 1022.61 1022.39 1022.20
1022.35 1022.85 1023.16 1023.35 1023.53 1023.80 1024.23 1024.84 1025.60 1026.42 1027.18 1027.77 1028.10 1028.12 1027.84 1027.30 1026.61 1025.90 1025.25 1024.74 1024.40 1024.22 1024.15 1024.13 1024.08 1023.95 1023.74 1023.46 1023.15 1022.86 1022.67 1022.59 1022.66 1022.84 1023.09 1023.35 1023.58 1023.72 1023.75 1023.67 1023.51 1023.29 1023.07 1022.86
1022.90 1023.31 1023.54 1023.70 1023.89 1024.19 1024.68 1025.35 1026.17 1027.03 1027.81 1028.38 1028.65 1028.59 1028.20 1027.56 1026.78 1025.98 1025.29 1024.78 1024.48 1024.38 1024.41 1024.50 1024.57 1024.56 1024.43 1024.21 1023.92 1023.63 1023.41 1023.29 1023.30 1023.43 1023.65 1023.91 1024.14 1024.31 1024.38 1024.34 1024.21 1024.02 1023.80 1023.59
1023.19 1023.50 1023.68 1023.82 1024.03 1024.39 1024.95 1025.71 1026.60 1027.51 1028.30 1028.85 1029.09 1028.96 1028.49 1027.77 1026.91 1026.07 1025.35 1024.85 1024.58 1024.55 1024.68 1024.88 1025.06 1025.15 1025.11 1024.95 1024.70 1024.42 1024.17 1024.01 1023.97 1024.06 1024.25 1024.49 1024.74 1024.93 1025.04 1025.05 1024.96 1024.80 1024.60 1024.38
1023.24 1023.45 1023.58 1023.71 1023.95 1024.36 1025.00 1025.83 1026.79 1027.73 1028.55 1029.10 1029.31 1029.15 1028.64 1027.87 1026.99 1026.14 1025.42 1024.94 1024.72 1024.74 1024.95 1025.24 1025.52 1025.70 1025.75 1025.66 1025.45 1025.18 1024.93 1024.74 1024.68 1024.73 1024.89 1025.12 1025.38 1025.60 1025.75 1025.81 1025.77 1025.65 1025.47 1025.26
1023.07 1023.20 1023.27 1023.39 1023.65 1024.11 1024.80 1025.68 1026.67 1027.65 1028.47 1029.02 1029.23 1029.07 1028.57 1027.82 1026.97 1026.15 1025.47 1025.04 1024.87 1024.96 1025.23 1025.59 1025.94 1026.21 1026.33 1026.30 1026.14 1025.91 1025.68 1025.49 1025.41 1025.44 1025.59 1025.81 1026.07 1026.32 1026.51 1026.61 1026.63 1026.55 1026.40 1026.20
1022.72 1022.78 1022.81 1022.92 1023.18 1023.66 1024.36 1025.25 1026.23 1027.20 1028.02 1028.57 1028.80 1028.68 1028.24 1027.57 1026.80 1026.07 1025.49 1025.13 1025.03 1025.17 1025.50 1025.92 1026.32 1026.65 1026.84 1026.88 1026.79 1026.61 1026.41 1026.25 1026.18 1026.21 1026.35 1026.57 1026.84 1027.10 1027.31 1027.46 1027.51 1027.47 1027.35 1027.18
1022.25 1022.26 1022.26 1022.35 1022.60 1023.06 1023.73 1024.57 1025.51 1026.42 1027.21 1027.76 1028.02 1027.97 1027.63 1027.10 1026.48 1025.89 1025.44 1025.19 1025.18 1025.38 1025.75 1026.20 1026.66 1027.03 1027.28 1027.39 1027.37 1027.27 1027.13 1027.02 1026.98 1027.03 1027.17 1027.39 1027.65 1027.92 1028.14 1028.31 1028.38 1028.38 1028.29 1028.15
1021.72 1021.72 1021.72 1021.79 1022.02 1022.42 1023.01 1023.76 1024.59 1025.42 1026.14 1026.68 1026.97 1027.00 1026.81 1026.45 1026.02 1025.61 1025.33 1025.21 1025.30 1025.57 1025.97 1026.45 1026.93 1027.34 1027.64 1027.82 1027.89 1027.87 1027.82 1027.78 1027.79 1027.86 1028.02 1028.23 1028.48 1028.73 1028.95 1029.11 1029.20 1029.22 1029.16 1029.04
1021.21 1021.24 1021.26 1021.33 1021.51 1021.84 1022.32 1022.93 1023.62 1024.32 1024.95 1025.45 1025.77 1025.90 1025.85 1025.68 1025.46 1025.26 1025.16 1025.19 1025.38 1025.71 1026.15 1026.64 1027.13 1027.57 1027.92 1028.17 1028.32 1028.41 1028.45 1028.49 1028.56 1028.68 1028.84 1029.05 1029.28 1029.50 1029.70 1029.85 1029.93 1029.95 1029.91 1029.81
1020.82 1020.91 1020.97 1021.04 1021.18 1021.41 1021.76 1022.21 1022.73 1023.28 1023.79 1024.23 1024.56 1024.76 1024.86 1024.88 1024.86 1024.87 1024.94 1025.11 1025.40 1025.78 1026.24 1026.74 1027.24 1027.70 1028.10 1028.42 1028.66 1028.84 1028.99 1029.12 1029.26 1029.41 1029.59 1029.79 1029.99 1030.18 1030.34 1030.46 1030.54 1030.55 1030.52 1030.45
1020.62 1020.79 1020.89 1020.98 1021.07 1021.22 1021.42 1021.70 1022.03 1022.40 1022.78 1023.14 1023.45 1023.72 1023.93 1024.10 1024.27 1024.45 1024.68 1024.97 1025.33 1025.76 1026.23 1026.73 1027.23 1027.71 1028.15 1028.53 1028.86 1029.15 1029.39 1029.61 1029.82 1030.02 1030.21 1030.40 1030.57 1030.73 1030.86 1030.95 1031.01 1031.03 1031.01 1030.96
1020.66 1020.90 1021.05 1021.14 1021.20 1021.24 1021.31 1021.41 1021.56 1021.76 1021.99 1022.26 1022.53 1022.82 1023.11 1023.41 1023.71 1024.03 1024.38 1024.76 1025.17 1025.62 1026.09 1026.59 1027.09 1027.58 1028.05 1028.50 1028.92 1029.30 1029.64 1029.95 1030.22 1030.46 1030.68 1030.86 1031.02 1031.15 1031.25 1031.32 1031.37 1031.40 1031.40 1031.38
1020.91 1021.20 1021.38 1021.47 1021.48 1021.43 1021.37 1021.32 1021.30 1021.33 1021.42 1021.59 1021.81 1022.09 1022.42 1022.79 1023.18 1023.59 1024.02 1024.45 1024.90 1025.35 1025.82 1026.31 1026.81 1027.31 1027.83 1028.34 1028.83 1029.30 1029.73 1030.12 1030.46 1030.75 1030.99 1031.18 1031.32 1031.44 1031.53 1031.60 1031.66 1031.70 1031.73 1031.74
1021.31 1021.61 1021.79 1021.85 1021.80 1021.67 1021.49 1021.30 1021.14 1021.03 1021.00 1021.07 1021.23 1021.49 1021.83 1022.23 1022.67 1023.13 1023.60 1024.06 1024.52 1024.97 1025.44 1025.92 1026.42 1026.95 1027.50 1028.07 1028.64 1029.19 1029.70 1030.17 1030.57 1030.90 1031.16 1031.36 1031.52 1031.65 1031.74 1031.83 1031.92 1031.99 1032.06 1032.11
1021.73 1021.99 1022.13 1022.13 1022.01 1021.80 1021.52 1021.22 1020.94 1020.72 1020.60 1020.59 1020.71 1020.94 1021.28 1021.68 1022.15 1022.63 1023.11 1023.58 1024.05 1024.50 1024.97 1025.45 1025.97 1026.54 1027.14 1027.76 1028.40 1029.02 1029.60 1030.13 1030.58 1030.95 1031.24 1031.47 1031.65 1031.80 1031.93 1032.05 1032.17 1032.29 1032.41 1032.50
1022.02 1022.20 1022.25 1022.17 1021.97 1021.67 1021.31 1020.93 1020.57 1020.29 1020.11 1020.06 1020.15 1020.36 1020.69 1021.11 1021.58 1022.08 1022.57 1023.06 1023.53 1024.00 1024.48 1024.99 1025.54 1026.14 1026.79 1027.47 1028.16 1028.84 1029.48 1030.06 1030.55 1030.96 1031.28 1031.54 1031.74 1031.92 1032.09 1032.26 1032.43 1032.60 1032.76 1032.89
1022.07 1022.13 1022.06 1021.88 1021.58 1021.21 1020.78 1020.35 1019.96 1019.65 1019.46 1019.41 1019.49 1019.72 1020.06 1020.49 1020.98 1021.50 1022.02 1022.52 1023.02 1023.52 1024.03 1024.58 1025.17 1025.82 1026.51 1027.24 1027.98 1028.71 1029.39 1030.00 1030.52 1030.95 1031.30 1031.58 1031.82 1032.03 1032.24 1032.45 1032.67 1032.88 1033.08 1033.25
1021.81 1021.72 1021.53 1021.22 1020.84 1020.40 1019.93 1019.49 1019.10 1018.81 1018.64 1018.62 1018.75 1019.01 1019.39 1019.86 1020.38 1020.93 1021.48 1022.03 1022.57 1023.11 1023.67 1024.27 1024.91 1025.60 1026.34 1027.10 1027.88 1028.63 1029.33 1029.95 1030.49 1030.94 1031.31 1031.61 1031.87 1032.11 1032.35 1032.59 1032.85 1033.09 1033.32 1033.51
1021.23 1021.01 1020.68 1020.28 1019.82 1019.33 1018.85 1018.41 1018.06 1017.83 1017.72 1017.77 1017.96 1018.29 1018.72 1019.25 1019.82 1020.42 1021.03 1021.63 1022.22 1022.82 1023.43 1024.07 1024.76 1025.48 1026.25 1027.04 1027.82 1028.58 1029.28 1029.91 1030.45 1030.90 1031.28 1031.59 1031.87 1032.14 1032.40 1032.66 1032.93 1033.20 1033.44 1033.63
1020.41 1020.07 1019.64 1019.15 1018.64 1018.14 1017.67 1017.28 1016.99 1016.83 1016.81 1016.95 1017.22 1017.63 1018.14 1018.73 1019.36 1020.02 1020.68 1021.33 1021.98 1022.63 1023.29 1023.97 1024.69 1025.44 1026.21 1027.00 1027.78 1028.53 1029.21 1029.83 1030.36 1030.81 1031.19 1031.52 1031.81 1032.08 1032.35 1032.63 1032.91 1033.17 1033.40 1033.58
1019.47 1019.03 1018.53 1018.00 1017.47 1016.98 1016.56 1016.23 1016.03 1015.96 1016.04 1016.27 1016.63 1017.12 1017.70 1018.35 1019.04 1019.74 1020.45 1021.15 1021.84 1022.53 1023.22 1023.93 1024.66 1025.41 1026.17 1026.94 1027.69 1028.41 1029.07 1029.67 1030.19 1030.63 1031.02 1031.35 1031.66 1031.94 1032.22 1032.50 1032.76 1033.01 1033.22 1033.38
1018.51 1018.03 1017.50 1016.97 1016.47 1016.02 1015.66 1015.42 1015.31 1015.34 1015.51 1015.82 1016.26 1016.81 1017.44 1018.13 1018.86 1019.60 1020.33 1021.06 1021.77 1022.47 1023.17 1023.88 1024.59 1025.32 1026.06 1026.79 1027.50 1028.19 1028.82 1029.40 1029.91 1030.36 1030.76 1031.11 1031.43 1031.73 1032.02 1032.29 1032.55 1032.77 1032.96 1033.09
Thickness
5731 5715 5706 5712 5717 5717 5715 5709 5705 5713 5727 5721 5715 5715 5719 5726 5726 5725 5725 5727 5729 5733 5739 5741 5742 5742 5740 5739 5737 5736 5734 5733 5732 5730 5727 5725 5723 5724 5725 5726 5726 5725 5724 5723
5712 5708 5721 5727 5725 5721 5714 5706 5705 5713 5725 5719 5712 5713 5720 5724 5725 5728 5727 5728 5731 5732 5733 5736 5738 5738 5738 5736 5735 5733 5732 5731 5730 5729 5727 5724 5722 5721 5722 5722 5722 5722 5722 5721
5706 5716 5730 5726 5718 5713 5711 5706 5706 5707 5715 5716 5710 5703 5712 5721 5727 5730 5731 5732 5733 5734 5733 5733 5734 5735 5734 5733 5733 5734 5731 5730 5729 5728 5725 5722 5719 5718 5717 5717 5717 5718 5718 5718
5713 5724 5725 5719 5716 5714 5703 5717 5716 5711 5699 5690 5701 5682 5702 5713 5719 5724 5728 5730 5732 5734 5734 5733 5733 5733 5733 5733 5734 5732 5730 5729 5728 5726 5723 5719 5714 5711 5713 5713 5714 5715 5715 5715
5710 5720 5719 5713 5718 5719 5712 5722 5716 5710 5698 5689 5693 5684 5694 5709 5710 5719 5726 5730 5732 5734 5734 5733 5734 5733 5733 5733 5732 5730 5728 5726 5725 5724 5721 5718 5714 5713 5712 5711 5711 5711 5712 5712
5717 5727 5725 5722 5726 5726 5722 5714 5707 5698 5688 5676 5688 5683 5687 5702 5713 5722 5727 5730 5732 5733 5734 5733 5733 5732 5731 5730 5729 5728 5725 5723 5722 5721 5719 5717 5714 5711 5709 5708 5707 5707 5708 5708
5705 5715 5725 5729 5716 5717 5713 5691 5672 5669 5664 5670 5691 5687 5692 5716 5725 5728 5728 5729 5731 5732 5731 5729 5728 5727 5726 5725 5725 5724 5723 5720 5719 5718 5716 5716 5714 5712 5709 5707 5706 5704 5704 5704
5688 5690 5714 5723 5715 5706 5704 5694 5671 5660 5659 5668 5687 5685 5701 5724 5730 5732 5732 5730 5730 5729 5729 5729 5728 5727 5725 5724 5723 5722 5720 5718 5717 5716 5715 5714 5713 5711 5709 5708 5706 5704 5703 5702
5688 5691 5719 5726 5727 5717 5702 5694 5696 5677 5672 5665 5674 5690 5707 5723 5723 5725 5726 5726 5725 5726 5727 5727 5727 5726 5724 5723 5722 5721 5719 5716 5715 5714 5713 5711 5710 5709 5708 5707 5705 5703 5702 5701
5702 5691 5709 5721 5724 5720 5713 5704 5685 5674 5661 5655 5668 5677 5685 5705 5711 5717 5719 5720 5723 5724 5725 5725 5724 5724 5724 5723 5721 5720 5718 5715 5713 5713 5711 5710 5708 5707 5706 5705 5703 5701 5700 5699
5707 5690 5696 5705 5703 5701 5704 5699 5690 5675 5671 5657 5653 5671 5705 5709 5714 5715 5717 5720 5721 5722 5722 5722 5722 5722 5721 5720 5718 5716 5715 5713 5710 5709 5708 5707 5705 5704 5704 5702 5700 5699 5698 5696
5704 5687 5680 5693 5711 5718 5709 5701 5690 5672 5668 5667 5659 5673 5717 5716 5719 5719 5719 5721 5722 5722 5722 5721 5720 5718 5716 5715 5714 5713 5712 5710 5708 5707 5705 5703 5702 5701 5699 5698 5697 5696 5694 5692
5702 5684 5669 5674 5688 5701 5701 5703 5697 5684 5672 5664 5659 5676 5715 5715 5715 5718 5719 5719 5720 5719 5719 5718 5716 5714 5712 5711 5710 5709 5708 5707 5705 5703 5701 5699 5697 5696 5695 5694 5693 5692 5690 5688
5703 5682 5672 5668 5676 5687 5691 5697 5698 5685 5668 5665 5671 5683 5701 5707 5710 5713 5715 5716 5716 5716 5715 5714 5711 5710 5709 5708 5707 5706 5705 5704 5702 5700 5697 5695 5693 5692 5691 5690 5689 5687 5686 5684
5696 5679 5682 5685 5693 5694 5694 5695 5695 5689 5683 5675 5682 5688 5699 5706 5709 5712 5713 5712 5712 5711 5710 5709 5708 5707 5706 5704 5704 5703 5702 5701 5699 5696 5693 5691 5691 5689 5688 5686 5684 5683 5681 5679
5687 5678 5678 5680 5690 5690 5689 5694 5696 5694 5692 5688 5689 5691 5708 5710 5710 5708 5708 5709 5707 5706 5707 5706 5705 5704 5703 5702 5701 5700 5698 5698 5696 5693 5690 5689 5687 5685 5683 5681 5679 5677 5675 5673
5677 5672 5665 5662 5676 5679 5674 5693 5694 5694 5696 5692 5685 5694 5704 5702 5704 5704 5705 5706 5705 5705 5704 5703 5702 5701 5700 5700 5699 5697 5696 5695 5692 5689 5687 5685 5683 5680 5678 5677 5673 5671 5669 5667
5674 5666 5655 5654 5662 5654 5680 5702 5702 5695 5697 5699 5698 5699 5702 5702 5704 5704 5705 5703 5702 5703 5702 5701 5701 5699 5699 5698 5697 5695 5693 5691 5688 5685 5683 5681 5679 5676 5674 5671 5668 5666 5665 5662
5679 5666 5652 5645 5646 5657 5681 5696 5697 5690 5688 5698 5696 5697 5698 5699 5695 5693 5700 5702 5701 5701 5701 5700 5699 5698 5697 5695 5695 5692 5689 5686 5684 5682 5680 5678 5676 5672 5669 5666 5663 5662 5659 5657
5673 5666 5652 5643 5643 5645 5674 5696 5703 5692 5677 5696 5696 5694 5693 5690 5677 5682 5695 5697 5697 5697 5697 5696 5696 5694 5693 5693 5691 5688 5684 5682 5680 5680 5678 5676 5673 5669 5665 5662 5659 5657 5654 5651
5657 5651 5645 5640 5639 5653 5681 5693 5694 5668 5673 5692 5693 5691 5688 5684 5684 5688 5692 5692 5693 5693 5692 5693 5692 5690 5689 5690 5688 5683 5681 5679 5679 5677 5674 5671 5669 5665 5662 5658 5654 5651 5648 5644
5646 5642 5639 5636 5634 5648 5682 5683 5675 5674 5685 5687 5686 5686 5685 5684 5685 5686 5686 5686 5686 5685 5686 5687 5686 5685 5685 5685 5683 5679 5677 5678 5676 5673 5669 5666 5663 5661 5657 5652 5648 5645 5641 5637
5644 5646 5643 5643 5648 5667 5675 5677 5681 5681 5679 5681 5680 5681 5680 5678 5677 5678 5678 5678 5679 5679 5680 5680 5680 5679 5678 5679 5678 5675 5674 5673 5671 5667 5663 5661 5658 5655 5651 5647 5642 5638 5634 5630
5643 5648 5643 5643 5653 5662 5668 5672 5675 5676 5675 5677 5678 5677 5676 5673 5672 5672 5671 5671 5672 5673 5673 5673 5672 5671 5671 5672 5673 5672 5670 5668 5665 5661 5658 5655 5651 5647 5644 5640 5637 5632 5628 5624
5635 5638 5635 5636 5646 5652 5659 5662 5665 5667 5669 5669 5670 5671 5670 5669 5666 5665 5664 5664 5665 5665 5665 5666 5665 5664 5665 5666 5666 5666 5664 5662 5658 5654 5651 5647 5644 5640 5636 5632 5629 5627 5624 5621
5631 5631 5628 5631 5641 5640 5647 5656 5658 5657 5659 5660 5660 5659 5661 5662 5660 5659 5657 5658 5658 5657 5658 5657 5657 5657 5658 5658 5658 5657 5657 5655 5651 5646 5643 5640 5637 5632 5628 5624 5621 5619 5617 5615